| time (UTC) | temp C | wind direction | speed KPH | gust KPH | rain 1hr cm | rain 24hr cm | rain mn cm | humidity % | barometer mb |
| 20260901140550 | 21 | 294 | 3.2 | 12.9 | 0.00 | 0.05 | 0.03 | 11 | 1023.4 |
| 20260901135650 | 21 | 290 | 6.4 | 12.9 | 0.00 | 0.05 | 0.03 | 10 | 1023.4 |
| 20260901134750 | 22 | 298 | 1.6 | 12.9 | 0.00 | 0.05 | 0.03 | 10 | 1023.6 |
| 20260901133849 | 24 | 317 | 3.2 | 12.9 | 0.00 | 0.05 | 0.03 | 10 | 1023.3 |
| 20260901132050 | 22 | 246 | 1.6 | 9.7 | 0.00 | 0.05 | 0.03 | 10 | 1023.5 |
| 20260901131149 | 23 | 290 | 1.6 | 11.3 | 0.00 | 0.05 | 0.03 | 10 | 1023.4 |
| 20260901130249 | 25 | 270 | 3.2 | 11.3 | 0.00 | 0.05 | 0.03 | 10 | 1023.5 |
| 20260901125349 | 24 | 295 | 3.2 | 12.9 | 0.00 | 0.05 | 0.03 | 10 | 1023.4 |
| 20260901124450 | 24 | 325 | 1.6 | 12.9 | 0.00 | 0.05 | 0.03 | 10 | 1023.6 |
| 20260901123549 | 23 | 1 | 0.0 | 11.3 | 0.00 | 0.05 | 0.03 | 10 | 1023.7 |
| 20260901122650 | 23 | 338 | 3.2 | 6.4 | 0.00 | 0.05 | 0.03 | 10 | 1023.7 |
| 20260901121749 | 20 | 303 | 0.0 | 4.8 | 0.00 | 0.05 | 0.03 | 12 | 1023.8 |
| 20260901120849 | 20 | 181 | 0.0 | 6.4 | 0.00 | 0.05 | 0.03 | 14 | 1023.9 |
| 20260901115949 | 20 | 357 | 0.0 | 8.0 | 0.00 | 0.05 | 0.03 | 14 | 1023.9 |
| 20260901115049 | 20 | 311 | 1.6 | 8.0 | 0.00 | 0.05 | 0.03 | 14 | 1024.0 |
| 20260901114149 | 21 | 314 | 0.0 | 6.4 | 0.00 | 0.05 | 0.03 | 13 | 1024.1 |
| 20260901112349 | 21 | 314 | 0.0 | 12.9 | 0.00 | 0.05 | 0.03 | 12 | 1024.1 |
| 20260901111449 | 23 | 304 | 1.6 | 16.1 | 0.00 | 0.05 | 0.03 | 10 | 1024.0 |
| 20260901110550 | 23 | 283 | 3.2 | 9.7 | 0.00 | 0.05 | 0.03 | 10 | 1024.0 |
| 20260901105649 | 22 | 319 | 1.6 | 14.5 | 0.00 | 0.05 | 0.03 | 11 | 1024.0 |
| 20260901104749 | 22 | 341 | 3.2 | 12.9 | 0.00 | 0.05 | 0.03 | 13 | 1023.9 |
| 20260901103849 | 21 | 347 | 4.8 | 12.9 | 0.00 | 0.05 | 0.03 | 13 | 1024.0 |
| 20260901102949 | 21 | 346 | 1.6 | 17.7 | 0.00 | 0.05 | 0.03 | 14 | 1024.1 |
| 20260901102049 | 21 | 310 | 3.2 | 17.7 | 0.00 | 0.05 | 0.03 | 12 | 1023.9 |
| 20260901101149 | 21 | 313 | 3.2 | 8.0 | 0.00 | 0.05 | 0.03 | 14 | 1024.0 |
| 20260901100249 | 21 | 330 | 3.2 | 12.9 | 0.00 | 0.05 | 0.03 | 17 | 1023.9 |
| 20260901094449 | 21 | 306 | 3.2 | 17.7 | 0.00 | 0.05 | 0.03 | 17 | 1023.9 |
| 20260901093549 | 21 | 318 | 3.2 | 12.9 | 0.00 | 0.05 | 0.03 | 18 | 1023.8 |
| 20260901092649 | 21 | 300 | 0.0 | 11.3 | 0.00 | 0.05 | 0.03 | 17 | 1024.1 |
| 20260901091749 | 21 | 285 | 0.0 | 20.9 | 0.00 | 0.05 | 0.03 | 17 | 1024.0 |
| 20260901085949 | 20 | 321 | 1.6 | 14.5 | 0.00 | 0.05 | 0.03 | 21 | 1023.8 |
| 20260901085049 | 20 | 342 | 4.8 | 14.5 | 0.00 | 0.05 | 0.03 | 20 | 1024.0 |
| 20260901084149 | 20 | 325 | 1.6 | 11.3 | 0.00 | 0.05 | 0.03 | 19 | 1024.0 |
| 20260901083249 | 20 | 302 | 3.2 | 12.9 | 0.00 | 0.05 | 0.03 | 22 | 1023.8 |
| 20260901082349 | 20 | 316 | 3.2 | 19.3 | 0.00 | 0.05 | 0.03 | 22 | 1023.6 |
| 20260901081450 | 20 | 323 | 3.2 | 16.1 | 0.00 | 0.10 | 0.03 | 22 | 1023.9 |
| 20260901080549 | 20 | 204 | 3.2 | 17.7 | 0.00 | 0.10 | 0.03 | 23 | 1023.6 |
| 20260901075649 | 21 | 330 | 6.4 | 17.7 | 0.00 | 0.10 | 0.03 | 21 | 1023.6 |
| 20260901074749 | 20 | 327 | 6.4 | 16.1 | 0.00 | 0.10 | 0.03 | 25 | 1023.4 |
| 20260901073849 | 20 | 333 | 3.2 | 16.1 | 0.00 | 0.10 | 0.03 | 29 | 1023.3 |
| 20260901072949 | 19 | 307 | 6.4 | 17.7 | 0.00 | 0.10 | 0.03 | 29 | 1023.4 |
| 20260901072049 | 19 | 303 | 3.2 | 17.7 | 0.00 | 0.10 | 0.03 | 30 | 1023.1 |
| 20260901071149 | 19 | 289 | 3.2 | 17.7 | 0.00 | 0.10 | 0.03 | 32 | 1023.0 |
| 20260901070249 | 18 | 266 | 6.4 | 16.1 | 0.00 | 0.10 | 0.03 | 35 | 1023.2 |
| 20260901065349 | 18 | 288 | 1.6 | 14.5 | 0.00 | 0.10 | 0.03 | 36 | 1023.2 |
| 20260901064449 | 18 | 303 | 1.6 | 14.5 | 0.00 | 0.13 | 0.03 | 38 | 1023.0 |
| 20260901063549 | 18 | 302 | 3.2 | 14.5 | 0.00 | 0.18 | 0.03 | 40 | 1023.0 |
| 20260901062649 | 17 | 306 | 3.2 | 17.7 | 0.00 | 0.28 | 0.03 | 41 | 1023.0 |
| 20260901061749 | 17 | 303 | 3.2 | 12.9 | 0.00 | 0.33 | 0.03 | 42 | 1022.9 |
| 20260901060849 | 18 | 278 | 3.2 | 12.9 | 0.00 | 0.53 | 0.03 | 44 | 1022.9 |
| 20260901055949 | 17 | 294 | 3.2 | 14.5 | 0.00 | 0.53 | 0.03 | 46 | 1022.9 |
| 20260901055049 | 17 | 327 | 3.2 | 12.9 | 0.00 | 0.84 | 0.03 | 48 | 1022.7 |
| 20260901054149 | 17 | 329 | 3.2 | 9.7 | 0.00 | 1.02 | 0.03 | 50 | 1022.7 |
| 20260901053249 | 17 | 319 | 1.6 | 16.1 | 0.00 | 1.02 | 0.03 | 53 | 1022.7 |
| 20260901051449 | 15 | 317 | 4.8 | 12.9 | 0.00 | 1.02 | 0.03 | 62 | 1022.7 |
| 20260901050549 | 14 | 314 | 1.6 | 8.0 | 0.00 | 1.02 | 0.03 | 66 | 1022.6 |
| 20260901044749 | 14 | 320 | 1.6 | 6.4 | 0.00 | 1.02 | 0.03 | 67 | 1022.5 |
| 20260901043849 | 13 | 314 | 0.0 | 6.4 | 0.00 | 1.02 | 0.03 | 68 | 1022.5 |
| 20260901042949 | 13 | 316 | 1.6 | 6.4 | 0.00 | 1.02 | 0.03 | 68 | 1022.6 |
| 20260901041149 | 13 | 341 | 0.0 | 9.7 | 0.00 | 1.02 | 0.03 | 67 | 1022.4 |
| 20260901040249 | 13 | 331 | 1.6 | 8.0 | 0.00 | 1.02 | 0.03 | 67 | 1022.3 |
| 20260901034449 | 13 | 322 | 1.6 | 9.7 | 0.00 | 1.02 | 0.03 | 66 | 1022.4 |
| 20260901033549 | 13 | 309 | 3.2 | 9.7 | 0.00 | 1.02 | 0.03 | 66 | 1022.2 |
| 20260901031749 | 13 | 305 | 1.6 | 6.4 | 0.00 | 1.02 | 0.03 | 64 | 1022.1 |
| 20260901030849 | 13 | 337 | 1.6 | 6.4 | 0.00 | 1.02 | 0.03 | 63 | 1022.3 |
| 20260901025949 | 13 | 313 | 1.6 | 6.4 | 0.00 | 1.02 | 0.03 | 62 | 1022.1 |
| 20260901025049 | 13 | 302 | 0.0 | 6.4 | 0.00 | 1.02 | 0.03 | 61 | 1022.1 |
| 20260901024149 | 13 | 293 | 3.2 | 6.4 | 0.00 | 1.02 | 0.03 | 59 | 1022.2 |
| 20260901023249 | 13 | 300 | 3.2 | 6.4 | 0.00 | 1.02 | 0.03 | 57 | 1022.2 |
| 20260901022349 | 13 | 314 | 3.2 | 6.4 | 0.00 | 1.02 | 0.03 | 56 | 1022.2 |
| 20260901021449 | 13 | 314 | 0.0 | 3.2 | 0.03 | 1.02 | 0.03 | 54 | 1022.1 |
| 20260901020549 | 13 | 202 | 0.0 | 3.2 | 0.03 | 1.02 | 0.03 | 54 | 1022.1 |
| 20260901015649 | 13 | 83 | 0.0 | 3.2 | 0.03 | 1.02 | 0.03 | 54 | 1022.1 |
| 20260901014749 | 13 | 14 | 1.6 | 4.8 | 0.03 | 1.02 | 0.03 | 54 | 1022.1 |
| 20260901013849 | 13 | 1 | 0.0 | 4.8 | 0.03 | 1.02 | 0.03 | 53 | 1022.0 |
| 20260901012949 | 13 | 3 | 1.6 | 4.8 | 0.03 | 1.02 | 0.03 | 52 | 1021.9 |
| 20260901012049 | 14 | 322 | 0.0 | 9.7 | 0.03 | 1.02 | 0.03 | 51 | 1021.9 |
| 20260901011149 | 14 | 250 | 3.2 | 9.7 | 0.00 | 0.99 | 0.00 | 50 | 1022.0 |
| 20260901010249 | 14 | 272 | 0.0 | 9.7 | 0.00 | 0.99 | 0.00 | 48 | 1022.0 |
| 20260901005349 | 14 | 275 | 1.6 | 6.4 | 0.00 | 0.99 | 0.00 | 47 | 1021.9 |
| 20260901004449 | 15 | 284 | 1.6 | 6.4 | 0.00 | 0.99 | 0.00 | 46 | 1021.8 |
| 20260901003549 | 15 | 302 | 3.2 | 6.4 | 0.00 | 0.99 | 0.00 | 45 | 1021.9 |
| 20260901002649 | 15 | 272 | 1.6 | 6.4 | 0.00 | 0.99 | 0.00 | 45 | 1021.6 |
| 20260901001749 | 15 | 283 | 0.0 | 4.8 | 0.00 | 0.99 | 0.00 | 45 | 1021.9 |
| 20260831235949 | 15 | 284 | 1.6 | 8.0 | 0.00 | 0.99 | 0.00 | 45 | 1022.0 |
| 20260831235049 | 14 | 306 | 0.0 | 3.2 | 0.00 | 0.99 | 0.00 | 43 | 1022.0 |
| 20260831234149 | 14 | 346 | 0.0 | 3.2 | 0.00 | 0.99 | 0.00 | 42 | 1021.9 |
| 20260831233249 | 14 | 349 | 0.0 | 4.8 | 0.00 | 0.99 | 0.00 | 41 | 1022.0 |
| 20260831232348 | 15 | 314 | 0.0 | 4.8 | 0.00 | 0.99 | 0.00 | 40 | 1021.8 |
| 20260831230549 | 15 | 320 | 0.0 | 6.4 | 0.00 | 0.99 | 0.00 | 37 | 1022.0 |
| 20260831225649 | 15 | 1 | 0.0 | 6.4 | 0.00 | 0.99 | 0.00 | 37 | 1021.8 |
| 20260831224749 | 15 | 343 | 1.6 | 9.7 | 0.00 | 0.99 | 0.00 | 37 | 1021.8 |
| 20260831223848 | 15 | 310 | 3.2 | 9.7 | 0.00 | 0.99 | 0.00 | 37 | 1021.6 |
| 20260831222948 | 15 | 347 | 0.0 | 4.8 | 0.00 | 0.99 | 0.00 | 36 | 1021.6 |
| 20260831222049 | 16 | 277 | 1.6 | 8.0 | 0.00 | 0.99 | 0.00 | 35 | 1021.4 |
| 20260831221149 | 16 | 252 | 0.0 | 4.8 | 0.00 | 0.99 | 0.00 | 34 | 1021.4 |
| 20260831220249 | 16 | 196 | 0.0 | 4.8 | 0.00 | 0.99 | 0.00 | 33 | 1021.3 |
| 20260831215348 | 16 | 314 | 0.0 | 6.4 | 0.00 | 0.99 | 0.99 | 33 | 1021.3 |
| 20260831214449 | 16 | 294 | 1.6 | 8.0 | 0.00 | 0.99 | 0.99 | 34 | 1021.4 |
| 20260831213549 | 16 | 298 | 0.0 | 8.0 | 0.00 | 0.99 | 0.99 | 36 | 1021.3 |
| 20260831212648 | 16 | 294 | 1.6 | 11.3 | 0.00 | 0.99 | 0.99 | 40 | 1021.3 |
| 20260831211748 | 16 | 308 | 0.0 | 8.0 | 0.00 | 0.99 | 0.99 | 47 | 1021.1 |
| 20260831210849 | 15 | 314 | 0.0 | 6.4 | 0.00 | 0.99 | 0.99 | 52 | 1021.0 |
| 20260831205948 | 15 | 314 | 3.2 | 6.4 | 0.00 | 0.99 | 0.99 | 55 | 1020.8 |
| 20260831205048 | 15 | 314 | 0.0 | 3.2 | 0.00 | 0.99 | 0.99 | 55 | 1020.6 |
| 20260831203249 | 15 | 314 | 0.0 | 1.6 | 0.00 | 0.99 | 0.99 | 57 | 1020.4 |
| 20260831202348 | 15 | 314 | 0.0 | 1.6 | 0.00 | 0.99 | 0.99 | 57 | 1020.2 |
| 20260831201449 | 14 | 314 | 0.0 | 1.6 | 0.00 | 0.99 | 0.99 | 56 | 1020.1 |
| 20260831200548 | 14 | 314 | 0.0 | 3.2 | 0.03 | 0.99 | 0.99 | 55 | 1020.1 |
| 20260831195648 | 14 | 314 | 0.0 | 3.2 | 0.03 | 0.99 | 0.99 | 55 | 1020.1 |
| 20260831194749 | 15 | 314 | 0.0 | 3.2 | 0.03 | 0.99 | 0.99 | 55 | 1020.1 |
| 20260831193849 | 15 | 314 | 0.0 | 1.6 | 0.03 | 0.99 | 0.99 | 55 | 1020.0 |
| 20260831192949 | 15 | 319 | 0.0 | 3.2 | 0.03 | 0.99 | 0.99 | 56 | 1020.1 |
| 20260831192049 | 15 | 338 | 1.6 | 3.2 | 0.03 | 0.99 | 0.99 | 56 | 1020.0 |
| 20260831191149 | 14 | 351 | 0.0 | 3.2 | 0.03 | 0.99 | 0.99 | 55 | 1019.9 |
| 20260831190249 | 14 | 341 | 0.0 | 3.2 | 0.00 | 0.97 | 0.97 | 54 | 1019.8 |
| 20260831185349 | 14 | 315 | 0.0 | 3.2 | 0.00 | 0.97 | 0.97 | 53 | 1019.7 |
| 20260831184449 | 14 | 314 | 0.0 | 3.2 | 0.00 | 0.97 | 0.97 | 50 | 1020.0 |
| 20260831183548 | 15 | 314 | 0.0 | 3.2 | 0.00 | 0.97 | 0.97 | 46 | 1019.8 |
| 20260831182649 | 15 | 314 | 0.0 | 3.2 | 0.00 | 0.97 | 0.97 | 43 | 1019.5 |
| 20260831181749 | 15 | 314 | 0.0 | 3.2 | 0.00 | 0.97 | 0.97 | 40 | 1019.4 |
| 20260831180848 | 16 | 314 | 0.0 | 3.2 | 0.00 | 0.97 | 0.97 | 37 | 1019.3 |
| 20260831175948 | 16 | 315 | 0.0 | 3.2 | 0.00 | 0.97 | 0.97 | 35 | 1019.1 |
| 20260831175048 | 17 | 314 | 0.0 | 3.2 | 0.00 | 0.97 | 0.97 | 31 | 1019.3 |
| 20260831174148 | 17 | 314 | 0.0 | 1.6 | 0.00 | 0.97 | 0.97 | 29 | 1019.0 |
| 20260831173248 | 18 | 314 | 0.0 | 1.6 | 0.00 | 0.97 | 0.97 | 26 | 1019.0 |
| 20260831172348 | 18 | 314 | 0.0 | 1.6 | 0.00 | 0.97 | 0.97 | 23 | 1019.0 |
| 20260831171448 | 20 | 314 | 0.0 | 3.2 | 0.00 | 0.97 | 0.97 | 18 | 1018.8 |
| 20260831170548 | 20 | 314 | 0.0 | 3.2 | 0.00 | 0.97 | 0.97 | 15 | 1018.8 |
| 20260831165648 | 20 | 314 | 0.0 | 3.2 | 0.00 | 0.97 | 0.97 | 15 | 1018.6 |
| 20260831164748 | 21 | 318 | 0.0 | 4.8 | 0.00 | 0.97 | 0.97 | 14 | 1018.7 |
| 20260831163848 | 21 | 314 | 0.0 | 3.2 | 0.00 | 0.97 | 0.97 | 13 | 1018.8 |
| 20260831162948 | 21 | 339 | 0.0 | 3.2 | 0.00 | 0.97 | 0.97 | 11 | 1018.8 |
| 20260831162048 | 22 | 1 | 0.0 | 6.4 | 0.00 | 0.97 | 0.97 | 10 | 1018.8 |
| 20260831161148 | 23 | 327 | 1.6 | 11.3 | 0.00 | 0.97 | 0.97 | 10 | 1018.7 |
| 20260831160248 | 24 | 291 | 1.6 | 11.3 | 0.00 | 0.97 | 0.97 | 10 | 1018.9 |
| 20260831155348 | 24 | 310 | 1.6 | 6.4 | 0.00 | 0.97 | 0.97 | 10 | 1018.9 |
| 20260831154448 | 23 | 296 | 1.6 | 6.4 | 0.00 | 0.97 | 0.97 | 10 | 1018.8 |
| 20260831153548 | 25 | 309 | 3.2 | 8.0 | 0.00 | 0.97 | 0.97 | 10 | 1018.9 |
| 20260831152648 | 25 | 332 | 3.2 | 9.7 | 0.00 | 0.97 | 0.97 | 10 | 1018.9 |
| 20260831150848 | 25 | 265 | 1.6 | 6.4 | 0.00 | 0.97 | 0.97 | 10 | 1019.1 |
| 20260831145948 | 25 | 257 | 0.0 | 9.7 | 0.00 | 0.97 | 0.97 | 10 | 1019.1 |
| 20260831145048 | 25 | 272 | 3.2 | 12.9 | 0.00 | 0.97 | 0.97 | 10 | 1019.1 |
| 20260831144148 | 24 | 198 | 0.0 | 6.4 | 0.00 | 0.97 | 0.97 | 10 | 1019.1 |
| 20260831143248 | 24 | 324 | 0.0 | 12.9 | 0.00 | 0.97 | 0.97 | 10 | 1019.3 |
| 20260831141448 | 24 | 318 | 3.2 | 9.7 | 0.00 | 0.97 | 0.97 | 10 | 1019.2 |